This is the latest recevied weather packets stored in our database for station/object K4DFD-13. If no packets are shown the sender has not sent any weather packets the latest 10 day(s).
| Time | Temp. | Humidity | Pressure | Rain* | Wind** | Luminosity | Snow |
|---|---|---|---|---|---|---|---|
| 1777626394 | 5.56° C | 85% | 1015.4 hPa | 0 mm | - | - | - |
| 1777626094 | 5.56° C | 84% | 1015.4 hPa | 0 mm | - | - | - |
| 1777625794 | 5.56° C | 82% | 1015.3 hPa | 0 mm | - | - | - |
| 1777625493 | 6.11° C | 81% | 1015.3 hPa | 0 mm | - | - | - |
| 1777625193 | 6.11° C | 81% | 1015.3 hPa | 0 mm | - | - | - |
| 1777624893 | 6.11° C | 80% | 1015.2 hPa | 0 mm | - | - | - |
| 1777624593 | 6.11° C | 80% | 1015.2 hPa | 0 mm | - | - | - |
| 1777624292 | 6.11° C | 81% | 1015.2 hPa | 0 mm | - | - | - |
| 1777623992 | 6.67° C | 80% | 1015.2 hPa | 0 mm | - | - | - |
| 1777623691 | 6.67° C | 79% | 1015.2 hPa | 0 mm | - | - | - |
| 1777623391 | 6.67° C | 74% | 1015.2 hPa | 0 mm | - | - | - |
| 1777623091 | 6.67° C | 75% | 1015.2 hPa | 0 mm | - | - | - |
| 1777622790 | 6.67° C | 78% | 1015.2 hPa | 0 mm | - | - | - |
| 1777622490 | 6.67° C | 76% | 1015.2 hPa | 0 mm | - | - | - |
| 1777622190 | 6.67° C | 77% | 1015.2 hPa | 0 mm | - | - | - |
| 1777621889 | 6.67° C | 75% | 1015.2 hPa | 0 mm | - | - | - |
| 1777621589 | 6.67° C | 76% | 1015.3 hPa | 0 mm | - | - | - |
| 1777621288 | 6.67° C | 75% | 1015.2 hPa | 0 mm | - | - | - |
| 1777620988 | 6.67° C | 75% | 1015.2 hPa | 0 mm | - | - | - |
| 1777620687 | 6.67° C | 75% | 1015.2 hPa | 0 mm | - | - | - |
| 1777620387 | 6.11° C | 76% | 1015 hPa | 0 mm | - | - | - |
| 1777620086 | 6.11° C | 77% | 1015 hPa | 0 mm | - | - | - |
| 1777619786 | 6.11° C | 77% | 1015 hPa | 0 mm | - | - | - |
| 1777619486 | 6.11° C | 77% | 1015 hPa | 0 mm | - | - | - |
| 1777619185 | 6.11° C | 77% | 1015.1 hPa | 0 mm | - | - | - |
* Rain latest hour (hover to see other rain measurements)
** Current wind speed in m/s (hover to see current wind gust speed)